Powrót do katalogu

DELTA 1 DEB

AktywnyPO
NORAD 26843·DEBRIS·🇺🇸 United States

Wystrzelony Jun 12, 1975 z Vandenberg Space Force Base

Loading…

Następne Przeloty (najbliższe 24 godziny)

TLE

ŚwieżeSource: Space-Track

Epoka: Sep 14, 2026, 02:27 UTC

1 26843U 75052KX  26257.10272196  .00000047  00000-0  20353-3 0  9999
2 26843  99.7016 113.8671 0115949 236.4667 276.8686 13.22353107550636

Śledź DELTA 1 DEB w czasie rzeczywistym z AllMySat

Download on the App Store